Погода в Унайзе

Саудовская Аравия     26°05′47″N   43°59′37″E
темп.,
°C
ветер,
м/с
пор.,
м/с
влажн.,
%
обл.,
%
осадки,
мм/ч
давл.,
гПа
погр.,
м
12 августа, пт
пт1200:00+35ссв510193 0.0 1002190
03:00+33ссв482256 0.0 1002130
06:00+32ссв34244 0.0 100463
09:00+37с69185 0.0 1003964
12:00+42с910135 0.0 10012284
15:00+44ссв1010107 0.0 9994048
18:00+42ссв810115 0.0 9992228
21:00+39ссв713145 0.0 1001303
13 августа, сб
сб1300:00+36св510171 0.0 1001172
03:00+33св472075 0.0 100095
06:00+32ссв45245 0.0 100160
09:00+37ссз46190 0.0 1002928
12:00+41ссв68132 0.0 10002191
15:00+43ссв7795 0.0 9983728
18:00+41ссв78105 0.0 9972006
21:00+38ссв510130 0.0 999183
14 августа, вс
вс1400:00+35св47145 0.0 100087
03:00+33ссв45160 0.0 100056
06:00+31св45170 0.0 100156
09:00+37ссв45122 0.0 1002623
12:00+41ссв67115 0.0 10012391
15:00+42ссв7795 0.0 9993051
18:00+41св67102 0.0 9981236
21:00+37св45120 0.0 100056
15 августа, пн
пн1500:00+35св45131 0.0 100048
03:00+32ссв34169 0.0 100134
06:00+31ссв45205 0.0 100260
09:00+36ссв681514 0.0 1003800
12:00+41ссв77129 0.0 10012805
15:00+42ссв881026 0.0 9994724
18:00+41св91110100 0.0 10001583
21:00+37всв5811100 0.0 1002132
16 августа, вт
вт1600:00+34в3416100 0.0 100239
03:00+32св2321100 0.0 100319
06:00+32св332388 0.0 100419
09:00+37ссв6816100 0.0 1004748
12:00+40ссв671186 0.0 10022587
15:00+42ссв78107 0.0 10004030
18:00+41ссв57105 0.0 1001294
21:00+36ссв34115 0.0 100222